Time,TemperatureF,DewpointF,PressureIn,WindDirection,WindDirectionDegrees,WindSpeedMPH,WindSpeedGustMPH,Humidity,HourlyPrecipIn,Conditions,Clouds,dailyrainin,SoftwareType,DateUTC
2013-01-22 00:00:00,8.1,2.4,30.16,West,265,5.0,11.0,77,0.00,,---,0.00,VWS V14.00,2013-01-22 05:00:00,
2013-01-22 00:01:00,8.1,2.4,30.16,West,273,12.0,12.0,77,0.00,,---,0.00,VWS V14.00,2013-01-22 05:01:00,
2013-01-22 00:06:00,8.0,2.6,30.16,South,171,2.0,12.0,78,0.00,,---,0.00,VWS V14.00,2013-01-22 05:06:00,
2013-01-22 00:11:00,7.8,2.7,30.16,SW,232,3.0,12.0,79,0.00,,---,0.00,VWS V14.00,2013-01-22 05:11:00,
2013-01-22 00:16:00,7.6,2.5,30.16,WSW,242,1.0,12.0,79,0.00,,---,0.00,VWS V14.00,2013-01-22 05:16:00,
2013-01-22 00:21:00,7.5,2.4,30.16,WSW,238,2.0,12.0,79,0.00,,---,0.00,VWS V14.00,2013-01-22 05:21:00,
2013-01-22 00:25:00,7.4,2.3,30.16,WSW,254,0.0,12.0,79,0.00,,---,0.00,VWS V14.00,2013-01-22 05:25:00,
2013-01-22 00:30:00,7.4,2.5,30.16,WSW,257,2.0,12.0,80,0.00,,---,0.00,VWS V14.00,2013-01-22 05:30:00,
2013-01-22 00:35:00,7.5,2.6,30.16,SW,235,2.0,7.0,80,0.00,,---,0.00,VWS V14.00,2013-01-22 05:35:00,
2013-01-22 00:41:00,7.4,2.3,30.16,WNW,285,4.0,11.0,79,0.00,,---,0.00,VWS V14.00,2013-01-22 05:41:00,
2013-01-22 00:46:00,7.4,2.0,30.16,SW,225,2.0,11.0,78,0.00,,---,0.00,VWS V14.00,2013-01-22 05:46:00,
2013-01-22 00:51:00,7.2,1.2,30.15,SW,223,1.0,14.0,76,0.00,,---,0.00,VWS V14.00,2013-01-22 05:51:00,
2013-01-22 00:56:00,7.1,1.1,30.16,WSW,257,5.0,14.0,76,0.00,,---,0.00,VWS V14.00,2013-01-22 05:56:00,
2013-01-22 01:01:00,7.1,0.9,30.16,SSW,205,3.0,14.0,75,0.00,,---,0.00,VWS V14.00,2013-01-22 06:01:00,
2013-01-22 01:06:00,7.0,0.8,30.16,WNW,282,0.0,11.0,75,0.00,,---,0.00,VWS V14.00,2013-01-22 06:06:00,
2013-01-22 01:11:00,6.9,0.7,30.16,West,266,2.0,11.0,75,0.00,,---,0.00,VWS V14.00,2013-01-22 06:11:00,
2013-01-22 01:16:00,6.9,0.4,30.16,WSW,254,10.0,11.0,74,0.00,,---,0.00,VWS V14.00,2013-01-22 06:16:00,
2013-01-22 01:21:00,6.8,0.6,30.16,WNW,286,0.0,11.0,75,0.00,,---,0.00,VWS V14.00,2013-01-22 06:21:00,
2013-01-22 01:26:00,6.8,0.6,30.16,WSW,242,2.0,13.0,75,0.00,,---,0.00,VWS V14.00,2013-01-22 06:26:00,
2013-01-22 01:31:00,6.8,0.6,30.16,SW,232,7.0,14.0,75,0.00,,---,0.00,VWS V14.00,2013-01-22 06:31:00,
2013-01-22 01:36:00,6.7,0.8,30.16,SW,235,4.0,11.0,76,0.00,,---,0.00,VWS V14.00,2013-01-22 06:36:00,
2013-01-22 01:41:00,6.6,0.7,30.16,SW,232,5.0,12.0,76,0.00,,---,0.00,VWS V14.00,2013-01-22 06:41:00,
2013-01-22 01:46:00,6.5,0.8,30.16,WSW,246,6.0,12.0,77,0.00,,---,0.00,VWS V14.00,2013-01-22 06:46:00,
2013-01-22 01:51:00,6.5,0.8,30.16,WSW,257,7.0,13.0,77,0.00,,---,0.00,VWS V14.00,2013-01-22 06:51:00,
2013-01-22 01:56:00,6.5,0.6,30.17,WSW,240,3.0,13.0,76,0.00,,---,0.00,VWS V14.00,2013-01-22 06:56:00,
2013-01-22 02:01:00,6.4,0.5,30.17,West,270,9.0,13.0,76,0.00,,---,0.00,VWS V14.00,2013-01-22 07:01:00,
2013-01-22 02:06:00,6.4,-0.1,30.17,WSW,254,1.0,14.0,74,0.00,,---,0.00,VWS V14.00,2013-01-22 07:06:00,
2013-01-22 02:11:00,6.4,-0.1,30.17,SW,222,2.0,14.0,74,0.00,,---,0.00,VWS V14.00,2013-01-22 07:11:00,
2013-01-22 02:16:00,6.3,-0.5,30.17,WSW,247,1.0,14.0,73,0.00,,---,0.00,VWS V14.00,2013-01-22 07:16:00,
2013-01-22 02:20:00,6.3,-0.2,30.18,SSW,203,10.0,14.0,74,0.00,,---,0.00,VWS V14.00,2013-01-22 07:20:00,
2013-01-22 02:25:00,6.2,-0.3,30.18,SW,235,7.0,14.0,74,0.00,,---,0.00,VWS V14.00,2013-01-22 07:25:00,
2013-01-22 02:30:00,6.2,-0.3,30.18,SSW,201,4.0,14.0,74,0.00,,---,0.00,VWS V14.00,2013-01-22 07:30:00,
2013-01-22 02:35:00,6.2,-0.3,30.18,SW,235,1.0,11.0,74,0.00,,---,0.00,VWS V14.00,2013-01-22 07:35:00,
2013-01-22 02:40:00,6.1,-0.4,30.18,WSW,257,6.0,15.0,74,0.00,,---,0.00,VWS V14.00,2013-01-22 07:40:00,
2013-01-22 02:45:00,6.1,-0.4,30.18,SW,227,3.0,15.0,74,0.00,,---,0.00,VWS V14.00,2013-01-22 07:45:00,
2013-01-22 02:50:00,6.0,-0.2,30.18,SSW,212,1.0,15.0,75,0.00,,---,0.00,VWS V14.00,2013-01-22 07:50:00,
2013-01-22 02:55:00,6.0,-0.5,30.18,NW,324,6.0,15.0,74,0.00,,---,0.00,VWS V14.00,2013-01-22 07:55:00,
2013-01-22 03:00:00,5.9,-0.3,30.18,WSW,252,2.0,15.0,75,0.00,,---,0.00,VWS V14.00,2013-01-22 08:00:00,
2013-01-22 03:05:00,5.8,-0.4,30.18,WSW,257,5.0,10.0,75,0.00,,---,0.00,VWS V14.00,2013-01-22 08:05:00,
2013-01-22 03:10:00,5.8,-0.4,30.18,WSW,246,5.0,10.0,75,0.00,,---,0.00,VWS V14.00,2013-01-22 08:10:00,
2013-01-22 03:15:00,5.8,-0.4,30.18,WSW,239,2.0,12.0,75,0.00,,---,0.00,VWS V14.00,2013-01-22 08:15:00,
2013-01-22 03:20:00,5.7,-0.5,30.18,SSW,213,3.0,12.0,75,0.00,,---,0.00,VWS V14.00,2013-01-22 08:20:00,
2013-01-22 03:25:00,5.7,-0.5,30.19,West,275,4.0,12.0,75,0.00,,---,0.00,VWS V14.00,2013-01-22 08:25:00,
2013-01-22 03:30:00,5.7,-0.5,30.19,WSW,257,5.0,12.0,75,0.00,,---,0.00,VWS V14.00,2013-01-22 08:30:00,
2013-01-22 03:35:00,5.6,-0.6,30.19,SW,236,6.0,8.0,75,0.00,,---,0.00,VWS V14.00,2013-01-22 08:35:00,
2013-01-22 03:40:00,5.6,-0.6,30.18,West,263,2.0,8.0,75,0.00,,---,0.00,VWS V14.00,2013-01-22 08:40:00,
2013-01-22 03:45:00,5.6,-0.6,30.18,SW,236,0.0,10.0,75,0.00,,---,0.00,VWS V14.00,2013-01-22 08:45:00,
2013-01-22 03:50:00,5.5,-1.0,30.18,WNW,292,5.0,15.0,74,0.00,,---,0.00,VWS V14.00,2013-01-22 08:50:00,
2013-01-22 03:55:00,5.5,-0.7,30.18,SSW,198,6.0,15.0,75,0.00,,---,0.00,VWS V14.00,2013-01-22 08:55:00,
2013-01-22 04:00:00,5.5,-1.0,30.19,WSW,237,6.0,15.0,74,0.00,,---,0.00,VWS V14.00,2013-01-22 09:00:00,
2013-01-22 04:05:00,5.5,-1.0,30.18,WNW,284,2.0,9.0,74,0.00,,---,0.00,VWS V14.00,2013-01-22 09:05:00,
2013-01-22 04:10:00,5.4,-1.1,30.18,WSW,240,2.0,13.0,74,0.00,,---,0.00,VWS V14.00,2013-01-22 09:10:00,
2013-01-22 04:15:00,5.4,-1.1,30.18,SSW,210,6.0,13.0,74,0.00,,---,0.00,VWS V14.00,2013-01-22 09:15:00,
2013-01-22 04:20:00,5.4,-1.1,30.19,SW,225,8.0,13.0,74,0.00,,---,0.00,VWS V14.00,2013-01-22 09:20:00,
2013-01-22 04:25:00,5.4,-1.1,30.19,WSW,239,1.0,13.0,74,0.00,,---,0.00,VWS V14.00,2013-01-22 09:25:00,
2013-01-22 04:30:00,5.3,-1.2,30.19,SW,232,4.0,13.0,74,0.00,,---,0.00,VWS V14.00,2013-01-22 09:30:00,
2013-01-22 04:35:00,5.3,-1.2,30.19,West,266,2.0,8.0,74,0.00,,---,0.00,VWS V14.00,2013-01-22 09:35:00,
2013-01-22 04:40:00,5.3,-0.9,30.19,West,267,6.0,10.0,75,0.00,,---,0.00,VWS V14.00,2013-01-22 09:40:00,
2013-01-22 04:45:00,5.3,-0.9,30.19,SW,235,1.0,14.0,75,0.00,,---,0.00,VWS V14.00,2013-01-22 09:45:00,
2013-01-22 04:50:00,5.3,-0.9,30.20,WSW,248,5.0,14.0,75,0.00,,---,0.00,VWS V14.00,2013-01-22 09:50:00,
2013-01-22 04:55:00,5.3,-0.9,30.20,SW,225,7.0,14.0,75,0.00,,---,0.00,VWS V14.00,2013-01-22 09:55:00,
2013-01-22 05:00:00,5.3,-0.9,30.20,WSW,257,1.0,14.0,75,0.00,,---,0.00,VWS V14.00,2013-01-22 10:00:00,
2013-01-22 05:05:00,5.3,-0.9,30.20,SW,215,8.0,10.0,75,0.00,,---,0.00,VWS V14.00,2013-01-22 10:05:00,
2013-01-22 05:10:00,5.3,-0.9,30.20,SW,236,0.0,12.0,75,0.00,,---,0.00,VWS V14.00,2013-01-22 10:10:00,
2013-01-22 05:15:00,5.2,-1.0,30.20,WSW,244,6.0,12.0,75,0.00,,---,0.00,VWS V14.00,2013-01-22 10:15:00,
2013-01-22 05:20:00,5.2,-0.7,30.21,WSW,241,2.0,12.0,76,0.00,,---,0.00,VWS V14.00,2013-01-22 10:20:00,
2013-01-22 05:25:00,5.2,-0.7,30.21,SW,220,4.0,12.0,76,0.00,,---,0.00,VWS V14.00,2013-01-22 10:25:00,
2013-01-22 05:30:00,5.1,-0.8,30.21,WSW,242,5.0,12.0,76,0.00,,---,0.00,VWS V14.00,2013-01-22 10:30:00,
2013-01-22 05:36:00,5.2,-0.7,30.21,SW,226,4.0,12.0,76,0.00,,---,0.00,VWS V14.00,2013-01-22 10:36:00,
2013-01-22 05:40:00,5.3,-0.6,30.21,SW,231,1.0,12.0,76,0.00,,---,0.00,VWS V14.00,2013-01-22 10:40:00,
2013-01-22 05:46:00,5.3,-0.3,30.21,SW,219,5.0,12.0,77,0.00,,---,0.00,VWS V14.00,2013-01-22 10:46:00,
2013-01-22 05:51:00,5.3,-0.3,30.22,SW,232,6.0,12.0,77,0.00,,---,0.00,VWS V14.00,2013-01-22 10:51:00,
2013-01-22 05:56:00,5.4,-0.2,30.22,SSW,211,0.0,12.0,77,0.00,,---,0.00,VWS V14.00,2013-01-22 10:56:00,
2013-01-22 06:01:00,5.4,-0.2,30.22,SW,221,1.0,12.0,77,0.00,,---,0.00,VWS V14.00,2013-01-22 11:01:00,
2013-01-22 06:06:00,5.4,-0.2,30.22,SW,229,2.0,10.0,77,0.00,,---,0.00,VWS V14.00,2013-01-22 11:06:00,
2013-01-22 06:11:00,5.4,0.0,30.23,West,264,0.0,10.0,78,0.00,,---,0.00,VWS V14.00,2013-01-22 11:11:00,
2013-01-22 06:16:00,5.4,0.0,30.22,WSW,237,6.0,13.0,78,0.00,,---,0.00,VWS V14.00,2013-01-22 11:16:00,
2013-01-22 06:21:00,5.3,0.2,30.23,WSW,258,6.0,15.0,79,0.00,,---,0.00,VWS V14.00,2013-01-22 11:21:00,
2013-01-22 06:25:00,5.3,0.2,30.23,West,262,2.0,15.0,79,0.00,,---,0.00,VWS V14.00,2013-01-22 11:25:00,
2013-01-22 06:31:00,5.2,0.1,30.24,West,260,2.0,15.0,79,0.00,,---,0.00,VWS V14.00,2013-01-22 11:31:00,
2013-01-22 06:35:00,5.1,0.3,30.24,SW,233,1.0,8.0,80,0.00,,---,0.00,VWS V14.00,2013-01-22 11:35:00,
2013-01-22 06:40:00,5.0,0.2,30.24,West,265,5.0,10.0,80,0.00,,---,0.00,VWS V14.00,2013-01-22 11:40:00,
2013-01-22 06:45:00,4.9,0.1,30.24,WSW,241,3.0,10.0,80,0.00,,---,0.00,VWS V14.00,2013-01-22 11:45:00,
2013-01-22 06:50:00,4.7,0.2,30.25,SW,234,3.0,10.0,81,0.00,,---,0.00,VWS V14.00,2013-01-22 11:50:00,
2013-01-22 06:55:00,4.7,0.2,30.25,SW,225,4.0,10.0,81,0.00,,---,0.00,VWS V14.00,2013-01-22 11:55:00,
2013-01-22 07:01:00,4.7,0.4,30.25,WNW,302,1.0,10.0,82,0.00,,---,0.00,VWS V14.00,2013-01-22 12:01:00,
2013-01-22 07:05:00,4.7,0.7,30.25,WSW,242,2.0,7.0,83,0.00,,---,0.00,VWS V14.00,2013-01-22 12:05:00,
2013-01-22 07:10:00,4.6,0.6,30.25,WNW,294,2.0,9.0,83,0.00,,---,0.00,VWS V14.00,2013-01-22 12:10:00,
2013-01-22 07:15:00,4.6,0.6,30.25,WSW,240,6.0,9.0,83,0.00,,---,0.00,VWS V14.00,2013-01-22 12:15:00,
2013-01-22 07:21:00,4.7,0.9,30.25,WSW,257,1.0,9.0,84,0.00,,---,0.00,VWS V14.00,2013-01-22 12:21:00,
2013-01-22 07:26:00,4.7,0.9,30.25,WSW,238,3.0,9.0,84,0.00,,---,0.00,VWS V14.00,2013-01-22 12:26:00,
2013-01-22 07:31:00,4.8,1.3,30.25,WSW,239,0.0,9.0,85,0.00,,---,0.00,VWS V14.00,2013-01-22 12:31:00,
2013-01-22 07:36:00,4.9,1.4,30.26,SW,224,1.0,5.0,85,0.00,,---,0.00,VWS V14.00,2013-01-22 12:36:00,
2013-01-22 07:41:00,4.9,1.4,30.26,SW,215,0.0,8.0,85,0.00,,---,0.00,VWS V14.00,2013-01-22 12:41:00,
2013-01-22 07:46:00,4.9,1.1,30.26,East,92,1.0,8.0,84,0.00,,---,0.00,VWS V14.00,2013-01-22 12:46:00,
2013-01-22 07:51:00,4.9,0.9,30.26,SW,226,0.0,8.0,83,0.00,,---,0.00,VWS V14.00,2013-01-22 12:51:00,
2013-01-22 07:56:00,4.8,0.5,30.27,SW,223,1.0,8.0,82,0.00,,---,0.00,VWS V14.00,2013-01-22 12:56:00,
2013-01-22 08:01:00,4.7,0.4,30.27,SSW,201,1.0,8.0,82,0.00,,---,0.00,VWS V14.00,2013-01-22 13:01:00,
2013-01-22 08:06:00,4.6,0.3,30.27,SW,214,3.0,7.0,82,0.00,,---,0.00,VWS V14.00,2013-01-22 13:06:00,
2013-01-22 08:11:00,4.6,0.3,30.28,SW,229,2.0,7.0,82,0.00,,---,0.00,VWS V14.00,2013-01-22 13:11:00,
2013-01-22 08:16:00,4.6,0.3,30.28,SW,223,3.0,8.0,82,0.00,,---,0.00,VWS V14.00,2013-01-22 13:16:00,
2013-01-22 08:21:00,4.7,0.4,30.28,WNW,282,2.0,8.0,82,0.00,,---,0.00,VWS V14.00,2013-01-22 13:21:00,
2013-01-22 08:25:00,4.8,0.5,30.28,NW,309,1.0,12.0,82,0.00,,---,0.00,VWS V14.00,2013-01-22 13:25:00,
2013-01-22 08:30:00,5.0,1.0,30.28,SW,232,0.0,12.0,83,0.00,,---,0.00,VWS V14.00,2013-01-22 13:30:00,
2013-01-22 08:35:00,5.1,1.1,30.28,WSW,242,4.0,5.0,83,0.00,,---,0.00,VWS V14.00,2013-01-22 13:35:00,
2013-01-22 08:40:00,5.3,1.3,30.28,East,92,0.0,9.0,83,0.00,,---,0.00,VWS V14.00,2013-01-22 13:40:00,
2013-01-22 08:45:00,5.4,1.6,30.29,SE,144,0.0,9.0,84,0.00,,---,0.00,VWS V14.00,2013-01-22 13:45:00,
2013-01-22 08:50:00,5.5,1.7,30.29,West,279,0.0,9.0,84,0.00,,---,0.00,VWS V14.00,2013-01-22 13:50:00,
2013-01-22 08:55:00,5.5,1.7,30.29,SW,218,1.0,9.0,84,0.00,,---,0.00,VWS V14.00,2013-01-22 13:55:00,
2013-01-22 09:00:00,5.5,1.7,30.29,ESE,111,0.0,9.0,84,0.00,,---,0.00,VWS V14.00,2013-01-22 14:00:00,
2013-01-22 09:05:00,5.6,1.8,30.30,WSW,244,0.0,6.0,84,0.00,,---,0.00,VWS V14.00,2013-01-22 14:05:00,
2013-01-22 09:10:00,5.6,1.6,30.30,WSW,255,3.0,8.0,83,0.00,,---,0.00,VWS V14.00,2013-01-22 14:10:00,
2013-01-22 09:15:00,5.7,1.7,30.30,SE,140,1.0,8.0,83,0.00,,---,0.00,VWS V14.00,2013-01-22 14:15:00,
2013-01-22 09:20:00,5.8,1.5,30.31,NE,34,0.0,8.0,82,0.00,,---,0.00,VWS V14.00,2013-01-22 14:20:00,
2013-01-22 09:25:00,5.9,1.6,30.31,North,355,6.0,9.0,82,0.00,,---,0.00,VWS V14.00,2013-01-22 14:25:00,
2013-01-22 09:30:00,5.6,1.3,30.31,NW,324,8.0,9.0,82,0.00,,---,0.00,VWS V14.00,2013-01-22 14:30:00,
2013-01-22 09:35:00,5.1,0.8,30.31,West,278,7.0,11.0,82,0.00,,---,0.00,VWS V14.00,2013-01-22 14:35:00,
2013-01-22 09:40:00,5.0,3.4,30.32,North,350,5.0,11.0,93,0.00,,---,0.00,VWS V14.00,2013-01-22 14:40:00,
2013-01-22 09:45:00,4.9,0.9,30.32,NNW,327,5.0,11.0,83,0.00,,---,0.00,VWS V14.00,2013-01-22 14:45:00,
2013-01-22 09:50:00,4.7,0.7,30.32,ESE,117,4.0,13.0,83,0.00,,---,0.00,VWS V14.00,2013-01-22 14:50:00,
2013-01-22 09:55:00,4.7,0.7,30.32,NNW,343,6.0,13.0,83,0.00,,---,0.00,VWS V14.00,2013-01-22 14:55:00,
2013-01-22 10:00:00,5.1,0.8,30.32,NNW,336,7.0,13.0,82,0.00,,---,0.00,VWS V14.00,2013-01-22 15:00:00,
2013-01-22 10:05:00,5.5,1.2,30.33,West,281,1.0,9.0,82,0.00,,---,0.00,VWS V14.00,2013-01-22 15:05:00,
2013-01-22 10:10:00,6.0,1.7,30.32,NNW,345,8.0,9.0,82,0.00,,---,0.00,VWS V14.00,2013-01-22 15:10:00,
2013-01-22 10:15:00,6.3,1.7,30.32,NW,316,5.0,9.0,81,0.00,,---,0.00,VWS V14.00,2013-01-22 15:15:00,
2013-01-22 10:20:00,6.7,1.9,30.32,NNE,19,2.0,9.0,80,0.00,,---,0.00,VWS V14.00,2013-01-22 15:20:00,
2013-01-22 10:25:00,7.0,1.9,30.32,WNW,300,6.0,11.0,79,0.00,,---,0.00,VWS V14.00,2013-01-22 15:25:00,
2013-01-22 10:30:00,7.4,2.0,30.32,North,360,2.0,11.0,78,0.00,,---,0.00,VWS V14.00,2013-01-22 15:30:00,
2013-01-22 10:35:00,8.0,2.6,30.32,North,355,4.0,8.0,78,0.00,,---,0.00,VWS V14.00,2013-01-22 15:35:00,
2013-01-22 10:40:00,8.3,2.3,30.33,NNE,13,1.0,8.0,76,0.00,,---,0.00,VWS V14.00,2013-01-22 15:40:00,
2013-01-22 10:45:00,8.1,1.2,30.33,NNW,336,5.0,8.0,73,0.00,,---,0.00,VWS V14.00,2013-01-22 15:45:00,
2013-01-22 10:50:00,8.1,1.5,30.33,North,355,4.0,10.0,74,0.00,,---,0.00,VWS V14.00,2013-01-22 15:50:00,
2013-01-22 10:55:00,8.5,2.5,30.33,WSW,240,1.0,10.0,76,0.00,,---,0.00,VWS V14.00,2013-01-22 15:55:00,
2013-01-22 11:00:00,8.5,1.3,30.32,East,90,1.0,16.0,72,0.00,,---,0.00,VWS V14.00,2013-01-22 16:00:00,
2013-01-22 11:05:00,8.3,1.1,30.33,NE,43,3.0,7.0,72,0.00,,---,0.00,VWS V14.00,2013-01-22 16:05:00,
2013-01-22 11:10:00,8.3,0.9,30.33,SE,137,2.0,7.0,71,0.00,,---,0.00,VWS V14.00,2013-01-22 16:10:00,
2013-01-22 11:15:00,8.4,0.9,30.33,East,95,0.0,7.0,71,0.00,,---,0.00,VWS V14.00,2013-01-22 16:15:00,
2013-01-22 11:20:00,8.4,0.9,30.33,WSW,248,12.0,13.0,71,0.00,,---,0.00,VWS V14.00,2013-01-22 16:20:00,
2013-01-22 11:25:00,7.9,-0.1,30.33,West,261,7.0,13.0,69,0.00,,---,0.00,VWS V14.00,2013-01-22 16:25:00,
2013-01-22 11:30:00,7.4,-0.9,30.33,South,191,0.0,13.0,68,0.00,,---,0.00,VWS V14.00,2013-01-22 16:30:00,
2013-01-22 11:35:00,7.3,-0.7,30.33,East,87,2.0,6.0,69,0.00,,---,0.00,VWS V14.00,2013-01-22 16:35:00,
2013-01-22 11:40:00,7.6,0.2,30.33,SSW,195,3.0,6.0,71,0.00,,---,0.00,VWS V14.00,2013-01-22 16:40:00,
2013-01-22 11:45:00,8.0,-0.1,30.32,WSW,256,2.0,7.0,69,0.00,,---,0.00,VWS V14.00,2013-01-22 16:45:00,
2013-01-22 11:50:00,8.2,0.4,30.32,SW,227,0.0,9.0,70,0.00,,---,0.00,VWS V14.00,2013-01-22 16:50:00,
2013-01-22 11:55:00,8.8,1.3,30.32,WSW,237,0.0,9.0,71,0.00,,---,0.00,VWS V14.00,2013-01-22 16:55:00,
2013-01-22 12:00:00,8.9,0.5,30.32,SSE,167,1.0,9.0,68,0.00,,---,0.00,VWS V14.00,2013-01-22 17:00:00,
2013-01-22 12:05:00,9.2,1.1,30.32,SW,223,3.0,5.0,69,0.00,,---,0.00,VWS V14.00,2013-01-22 17:05:00,
2013-01-22 12:10:00,9.3,0.9,30.31,SW,221,2.0,13.0,68,0.00,,---,0.00,VWS V14.00,2013-01-22 17:10:00,
2013-01-22 12:15:00,9.3,1.2,30.31,SSW,208,4.0,13.0,69,0.00,,---,0.00,VWS V14.00,2013-01-22 17:15:00,
2013-01-22 12:20:00,9.7,1.9,30.31,WSW,250,5.0,13.0,70,0.00,,---,0.00,VWS V14.00,2013-01-22 17:20:00,
2013-01-22 12:26:00,9.3,0.9,30.31,SSW,211,4.0,14.0,68,0.00,,---,0.00,VWS V14.00,2013-01-22 17:26:00,
2013-01-22 12:31:00,9.3,1.2,30.31,SW,236,4.0,14.0,69,0.00,,---,0.00,VWS V14.00,2013-01-22 17:31:00,
2013-01-22 12:36:00,9.4,1.3,30.31,SW,227,6.0,11.0,69,0.00,,---,0.00,VWS V14.00,2013-01-22 17:36:00,
2013-01-22 12:41:00,9.8,1.7,30.30,East,97,1.0,14.0,69,0.00,,---,0.00,VWS V14.00,2013-01-22 17:41:00,
2013-01-22 12:46:00,9.6,0.9,30.31,WSW,238,6.0,19.0,67,0.00,,---,0.00,VWS V14.00,2013-01-22 17:46:00,
2013-01-22 12:50:00,9.1,0.7,30.30,WSW,244,2.0,19.0,68,0.00,,---,0.00,VWS V14.00,2013-01-22 17:50:00,
2013-01-22 12:55:00,8.7,0.3,30.30,West,266,5.0,19.0,68,0.00,,---,0.00,VWS V14.00,2013-01-22 17:55:00,
2013-01-22 13:00:00,8.6,0.2,30.30,NE,36,3.0,19.0,68,0.00,,---,0.00,VWS V14.00,2013-01-22 18:00:00,
2013-01-22 13:05:00,8.7,0.9,30.31,WSW,256,3.0,8.0,70,0.00,,---,0.00,VWS V14.00,2013-01-22 18:05:00,
2013-01-22 13:10:00,8.6,1.1,30.31,SW,234,4.0,10.0,71,0.00,,---,0.00,VWS V14.00,2013-01-22 18:10:00,
2013-01-22 13:15:00,8.5,0.4,30.30,WSW,240,7.0,11.0,69,0.00,,---,0.00,VWS V14.00,2013-01-22 18:15:00,
2013-01-22 13:20:00,8.8,0.4,30.30,WSW,250,6.0,11.0,68,0.00,,---,0.00,VWS V14.00,2013-01-22 18:20:00,
2013-01-22 13:25:00,9.4,1.0,30.29,West,271,18.0,18.0,68,0.00,,---,0.00,VWS V14.00,2013-01-22 18:25:00,
2013-01-22 13:30:00,10.2,1.4,30.29,WSW,250,6.0,18.0,67,0.00,,---,0.00,VWS V14.00,2013-01-22 18:30:00,
2013-01-22 13:36:00,10.8,1.7,30.29,SW,234,4.0,13.0,66,0.00,,---,0.00,VWS V14.00,2013-01-22 18:36:00,
2013-01-22 13:41:00,10.8,1.4,30.29,SW,229,1.0,15.0,65,0.00,,---,0.00,VWS V14.00,2013-01-22 18:41:00,
2013-01-22 13:46:00,10.5,1.1,30.28,West,268,10.0,15.0,65,0.00,,---,0.00,VWS V14.00,2013-01-22 18:46:00,
2013-01-22 13:51:00,10.6,1.2,30.29,WNW,282,16.0,16.0,65,0.00,,---,0.00,VWS V14.00,2013-01-22 18:51:00,
2013-01-22 13:56:00,10.7,1.6,30.28,West,262,6.0,16.0,66,0.00,,---,0.00,VWS V14.00,2013-01-22 18:56:00,
2013-01-22 14:01:00,10.8,1.4,30.28,SW,227,1.0,16.0,65,0.00,,---,0.00,VWS V14.00,2013-01-22 19:01:00,
2013-01-22 14:06:00,11.2,2.4,30.28,SW,232,3.0,12.0,67,0.00,,---,0.00,VWS V14.00,2013-01-22 19:06:00,
2013-01-22 14:11:00,11.4,2.9,30.28,SW,232,4.0,15.0,68,0.00,,---,0.00,VWS V14.00,2013-01-22 19:11:00,
2013-01-22 14:16:00,11.2,1.4,30.29,SW,215,4.0,16.0,64,0.00,,---,0.00,VWS V14.00,2013-01-22 19:16:00,
2013-01-22 14:21:00,10.8,1.4,30.28,SW,224,6.0,16.0,65,0.00,,---,0.00,VWS V14.00,2013-01-22 19:21:00,
2013-01-22 14:26:00,10.9,2.1,30.28,West,266,2.0,20.0,67,0.00,,---,0.00,VWS V14.00,2013-01-22 19:26:00,
2013-01-22 14:31:00,11.1,2.6,30.29,SW,229,5.0,20.0,68,0.00,,---,0.00,VWS V14.00,2013-01-22 19:31:00,
2013-01-22 14:36:00,11.4,2.3,30.29,West,264,2.0,11.0,66,0.00,,---,0.00,VWS V14.00,2013-01-22 19:36:00,
2013-01-22 14:41:00,11.0,0.9,30.29,WNW,284,7.0,18.0,63,0.00,,---,0.00,VWS V14.00,2013-01-22 19:41:00,
2013-01-22 14:46:00,10.7,1.6,30.29,WSW,240,3.0,18.0,66,0.00,,---,0.00,VWS V14.00,2013-01-22 19:46:00,
2013-01-22 14:51:00,10.2,1.8,30.30,WSW,256,4.0,18.0,68,0.00,,---,0.00,VWS V14.00,2013-01-22 19:51:00,
2013-01-22 14:56:00,10.1,3.2,30.30,ENE,69,3.0,18.0,73,0.00,,---,0.00,VWS V14.00,2013-01-22 19:56:00,
2013-01-22 15:01:00,10.1,4.3,30.30,SE,138,1.0,18.0,77,0.00,,---,0.00,VWS V14.00,2013-01-22 20:01:00,
2013-01-22 15:06:00,10.0,4.5,30.30,North,350,0.0,6.0,78,0.00,,---,0.00,VWS V14.00,2013-01-22 20:06:00,
2013-01-22 15:11:00,9.8,4.6,30.31,WSW,241,3.0,8.0,79,0.00,,---,0.00,VWS V14.00,2013-01-22 20:11:00,
2013-01-22 15:16:00,9.2,3.7,30.30,SW,214,4.0,13.0,78,0.00,,---,0.00,VWS V14.00,2013-01-22 20:16:00,
2013-01-22 15:20:00,8.9,3.2,30.31,SSW,212,5.0,13.0,77,0.00,,---,0.00,VWS V14.00,2013-01-22 20:20:00,
2013-01-22 15:25:00,9.0,3.0,30.31,WSW,244,0.0,13.0,76,0.00,,---,0.00,VWS V14.00,2013-01-22 20:25:00,
2013-01-22 15:30:00,9.0,3.0,30.31,WSW,248,4.0,13.0,76,0.00,,---,0.00,VWS V14.00,2013-01-22 20:30:00,
2013-01-22 15:35:00,8.9,2.6,30.31,SSW,199,4.0,12.0,75,0.00,,---,0.00,VWS V14.00,2013-01-22 20:35:00,
2013-01-22 15:40:00,9.0,3.3,30.32,SW,218,4.0,12.0,77,0.00,,---,0.00,VWS V14.00,2013-01-22 20:40:00,
2013-01-22 15:45:00,8.9,2.9,30.32,West,265,4.0,13.0,76,0.00,,---,0.00,VWS V14.00,2013-01-22 20:45:00,
2013-01-22 15:50:00,8.6,2.9,30.32,WSW,249,4.0,13.0,77,0.00,,---,0.00,VWS V14.00,2013-01-22 20:50:00,
2013-01-22 15:55:00,8.9,3.2,30.31,West,266,1.0,13.0,77,0.00,,---,0.00,VWS V14.00,2013-01-22 20:55:00,
2013-01-22 16:00:00,9.2,3.5,30.32,SW,234,3.0,13.0,77,0.00,,---,0.00,VWS V14.00,2013-01-22 21:00:00,
2013-01-22 16:05:00,9.2,3.2,30.31,SW,234,7.0,12.0,76,0.00,,---,0.00,VWS V14.00,2013-01-22 21:05:00,
2013-01-22 16:10:00,9.0,3.0,30.32,SSW,211,1.0,12.0,76,0.00,,---,0.00,VWS V14.00,2013-01-22 21:10:00,
2013-01-22 16:15:00,8.9,3.7,30.31,West,259,1.0,12.0,79,0.00,,---,0.00,VWS V14.00,2013-01-22 21:15:00,
2013-01-22 16:20:00,8.9,4.0,30.31,West,266,2.0,12.0,80,0.00,,---,0.00,VWS V14.00,2013-01-22 21:20:00,
2013-01-22 16:25:00,8.7,4.1,30.32,SW,225,8.0,12.0,81,0.00,,---,0.00,VWS V14.00,2013-01-22 21:25:00,
2013-01-22 16:30:00,8.5,3.9,30.32,SW,216,0.0,12.0,81,0.00,,---,0.00,VWS V14.00,2013-01-22 21:30:00,
2013-01-22 16:31:00,8.5,3.9,30.32,West,275,5.0,12.0,81,0.00,,---,0.00,VWS V14.00,2013-01-22 21:31:00,
2013-01-22 16:36:00,8.5,3.9,30.32,SW,236,3.0,7.0,81,0.00,,---,0.00,VWS V14.00,2013-01-22 21:36:00,
2013-01-22 16:41:00,8.5,4.2,30.32,SW,226,0.0,8.0,82,0.00,,---,0.00,VWS V14.00,2013-01-22 21:41:00,
2013-01-22 16:47:00,8.4,3.8,30.32,WSW,254,1.0,8.0,81,0.00,,---,0.00,VWS V14.00,2013-01-22 21:47:00,
2013-01-22 16:52:00,8.3,4.0,30.32,SW,224,2.0,8.0,82,0.00,,---,0.00,VWS V14.00,2013-01-22 21:52:00,
2013-01-22 16:57:00,8.3,4.2,30.32,WSW,247,2.0,8.0,83,0.00,,---,0.00,VWS V14.00,2013-01-22 21:57:00,
2013-01-22 17:02:00,8.3,4.2,30.32,WSW,238,1.0,8.0,83,0.00,,---,0.00,VWS V14.00,2013-01-22 22:02:00,
2013-01-22 17:07:00,8.2,4.4,30.32,WSW,243,0.0,11.0,84,0.00,,---,0.00,VWS V14.00,2013-01-22 22:07:00,
2013-01-22 17:12:00,8.1,4.0,30.32,WSW,248,1.0,11.0,83,0.00,,---,0.00,VWS V14.00,2013-01-22 22:12:00,
2013-01-22 17:17:00,7.9,3.8,30.32,WSW,248,2.0,11.0,83,0.00,,---,0.00,VWS V14.00,2013-01-22 22:17:00,
2013-01-22 17:22:00,7.7,3.6,30.32,SW,227,3.0,11.0,83,0.00,,---,0.00,VWS V14.00,2013-01-22 22:22:00,
2013-01-22 17:27:00,7.7,3.6,30.32,SW,234,2.0,11.0,83,0.00,,---,0.00,VWS V14.00,2013-01-22 22:27:00,
2013-01-22 17:32:00,7.6,3.5,30.32,WSW,248,0.0,1.0,83,0.00,,---,0.00,VWS V14.00,2013-01-22 22:32:00,
2013-01-22 17:37:00,7.5,3.4,30.32,WSW,247,0.0,4.0,83,0.00,,---,0.00,VWS V14.00,2013-01-22 22:37:00,
2013-01-22 17:42:00,7.3,3.2,30.32,West,263,3.0,7.0,83,0.00,,---,0.00,VWS V14.00,2013-01-22 22:42:00,
2013-01-22 17:47:00,7.3,3.5,30.33,WSW,248,1.0,7.0,84,0.00,,---,0.00,VWS V14.00,2013-01-22 22:47:00,
2013-01-22 17:52:00,7.3,3.5,30.33,SW,232,0.0,7.0,84,0.00,,---,0.00,VWS V14.00,2013-01-22 22:52:00,
2013-01-22 17:57:00,7.3,3.5,30.33,WNW,282,4.0,9.0,84,0.00,,---,0.00,VWS V14.00,2013-01-22 22:57:00,
2013-01-22 18:02:00,7.4,3.3,30.33,WSW,254,0.0,4.0,83,0.00,,---,0.00,VWS V14.00,2013-01-22 23:02:00,
2013-01-22 18:07:00,7.5,3.2,30.33,WSW,244,4.0,8.0,82,0.00,,---,0.00,VWS V14.00,2013-01-22 23:07:00,
2013-01-22 18:12:00,7.5,2.9,30.34,WSW,240,2.0,8.0,81,0.00,,---,0.00,VWS V14.00,2013-01-22 23:12:00,
2013-01-22 18:17:00,7.5,2.9,30.34,WSW,240,1.0,8.0,81,0.00,,---,0.00,VWS V14.00,2013-01-22 23:17:00,
2013-01-22 18:22:00,7.3,2.7,30.34,West,259,0.0,8.0,81,0.00,,---,0.00,VWS V14.00,2013-01-22 23:22:00,
2013-01-22 18:27:00,7.4,2.8,30.34,WSW,257,0.0,8.0,81,0.00,,---,0.00,VWS V14.00,2013-01-22 23:27:00,
2013-01-22 18:32:00,7.4,2.8,30.34,WSW,255,1.0,2.0,81,0.00,,---,0.00,VWS V14.00,2013-01-22 23:32:00,
2013-01-22 18:37:00,7.4,3.1,30.35,WSW,240,4.0,5.0,82,0.00,,---,0.00,VWS V14.00,2013-01-22 23:37:00,
2013-01-22 18:42:00,7.4,3.1,30.34,SW,234,0.0,13.0,82,0.00,,---,0.00,VWS V14.00,2013-01-22 23:42:00,
2013-01-22 18:47:00,7.4,3.1,30.35,SW,232,1.0,13.0,82,0.00,,---,0.00,VWS V14.00,2013-01-22 23:47:00,
2013-01-22 18:52:00,7.5,3.2,30.34,WSW,252,3.0,13.0,82,0.00,,---,0.00,VWS V14.00,2013-01-22 23:52:00,
2013-01-22 18:57:00,7.4,2.8,30.34,West,270,5.0,13.0,81,0.00,,---,0.00,VWS V14.00,2013-01-22 23:57:00,
2013-01-22 19:02:00,7.4,2.8,30.35,SW,232,0.0,4.0,81,0.00,,---,0.00,VWS V14.00,2013-01-23 00:02:00,
2013-01-22 19:07:00,7.2,2.6,30.35,SW,222,3.0,5.0,81,0.00,,---,0.00,VWS V14.00,2013-01-23 00:07:00,
2013-01-22 19:12:00,7.1,2.8,30.34,SW,216,6.0,6.0,82,0.00,,---,0.00,VWS V14.00,2013-01-23 00:12:00,
2013-01-22 19:17:00,7.1,2.8,30.35,WSW,238,2.0,7.0,82,0.00,,---,0.00,VWS V14.00,2013-01-23 00:17:00,
2013-01-22 19:22:00,7.0,2.7,30.34,WSW,248,3.0,8.0,82,0.00,,---,0.00,VWS V14.00,2013-01-23 00:22:00,
2013-01-22 19:27:00,7.0,2.9,30.34,WSW,242,2.0,8.0,83,0.00,,---,0.00,VWS V14.00,2013-01-23 00:27:00,
2013-01-22 19:32:00,6.9,2.8,30.34,SW,232,1.0,1.0,83,0.00,,---,0.00,VWS V14.00,2013-01-23 00:32:00,
2013-01-22 19:37:00,6.9,3.1,30.35,WSW,255,4.0,7.0,84,0.00,,---,0.00,VWS V14.00,2013-01-23 00:37:00,
2013-01-22 19:42:00,6.8,3.0,30.35,WSW,256,3.0,7.0,84,0.00,,---,0.00,VWS V14.00,2013-01-23 00:42:00,
2013-01-22 19:47:00,6.8,3.0,30.35,SW,229,3.0,7.0,84,0.00,,---,0.00,VWS V14.00,2013-01-23 00:47:00,
2013-01-22 19:52:00,6.7,2.9,30.35,WSW,252,1.0,7.0,84,0.00,,---,0.00,VWS V14.00,2013-01-23 00:52:00,
2013-01-22 19:57:00,6.6,2.5,30.35,WSW,241,0.0,7.0,83,0.00,,---,0.00,VWS V14.00,2013-01-23 00:57:00,
2013-01-22 20:02:00,6.5,2.5,30.34,WSW,242,0.0,0.0,83,0.00,,---,0.00,VWS V14.00,2013-01-23 01:02:00,
2013-01-22 20:07:00,6.3,2.5,30.35,WSW,242,0.0,2.0,84,0.00,,---,0.00,VWS V14.00,2013-01-23 01:07:00,
2013-01-22 20:12:00,6.2,2.4,30.34,WSW,242,2.0,3.0,84,0.00,,---,0.00,VWS V14.00,2013-01-23 01:12:00,
2013-01-22 20:17:00,6.0,2.2,30.34,WSW,242,0.0,3.0,84,0.00,,---,0.00,VWS V14.00,2013-01-23 01:17:00,
2013-01-22 20:22:00,5.9,2.1,30.35,WSW,242,0.0,3.0,84,0.00,,---,0.00,VWS V14.00,2013-01-23 01:22:00,
2013-01-22 20:27:00,5.8,2.0,30.35,WSW,254,0.0,5.0,84,0.00,,---,0.00,VWS V14.00,2013-01-23 01:27:00,
2013-01-22 20:32:00,5.7,2.2,30.35,WSW,250,0.0,0.0,85,0.00,,---,0.00,VWS V14.00,2013-01-23 01:32:00,
2013-01-22 20:37:00,5.6,2.1,30.35,WSW,250,1.0,3.0,85,0.00,,---,0.00,VWS V14.00,2013-01-23 01:37:00,
2013-01-22 20:42:00,5.6,2.1,30.35,WSW,253,0.0,3.0,85,0.00,,---,0.00,VWS V14.00,2013-01-23 01:42:00,
2013-01-22 20:47:00,5.6,2.1,30.35,WSW,253,1.0,3.0,85,0.00,,---,0.00,VWS V14.00,2013-01-23 01:47:00,
2013-01-22 20:53:00,5.5,2.0,30.34,WSW,253,0.0,3.0,85,0.00,,---,0.00,VWS V14.00,2013-01-23 01:53:00,
2013-01-22 20:58:00,5.5,1.7,30.34,WSW,253,0.0,3.0,84,0.00,,---,0.00,VWS V14.00,2013-01-23 01:58:00,
2013-01-22 21:03:00,5.4,1.6,30.34,WSW,253,0.0,1.0,84,0.00,,---,0.00,VWS V14.00,2013-01-23 02:03:00,
2013-01-22 21:08:00,5.3,1.5,30.34,WSW,253,1.0,2.0,84,0.00,,---,0.00,VWS V14.00,2013-01-23 02:08:00,
2013-01-22 21:13:00,5.2,1.4,30.34,WSW,253,0.0,2.0,84,0.00,,---,0.00,VWS V14.00,2013-01-23 02:13:00,
2013-01-22 21:18:00,5.2,1.4,30.34,WSW,253,0.0,3.0,84,0.00,,---,0.00,VWS V14.00,2013-01-23 02:18:00,
2013-01-22 21:23:00,5.1,1.3,30.34,WSW,253,0.0,3.0,84,0.00,,---,0.00,VWS V14.00,2013-01-23 02:23:00,
2013-01-22 21:28:00,5.0,1.2,30.34,WSW,253,0.0,3.0,84,0.00,,---,0.00,VWS V14.00,2013-01-23 02:28:00,
2013-01-22 21:33:00,4.9,1.1,30.34,WSW,253,0.0,0.0,84,0.00,,---,0.00,VWS V14.00,2013-01-23 02:33:00,
2013-01-22 21:38:00,4.7,0.9,30.34,WSW,253,0.0,0.0,84,0.00,,---,0.00,VWS V14.00,2013-01-23 02:38:00,
2013-01-22 21:43:00,4.5,0.7,30.34,WSW,253,0.0,0.0,84,0.00,,---,0.00,VWS V14.00,2013-01-23 02:43:00,
2013-01-22 21:48:00,4.4,0.9,30.34,WSW,253,0.0,2.0,85,0.00,,---,0.00,VWS V14.00,2013-01-23 02:48:00,
2013-01-22 21:53:00,4.3,0.8,30.34,WSW,253,0.0,2.0,85,0.00,,---,0.00,VWS V14.00,2013-01-23 02:53:00,
2013-01-22 21:58:00,4.2,0.7,30.34,WSW,253,0.0,2.0,85,0.00,,---,0.00,VWS V14.00,2013-01-23 02:58:00,
2013-01-22 22:03:00,4.1,0.6,30.34,WSW,253,0.0,0.0,85,0.00,,---,0.00,VWS V14.00,2013-01-23 03:03:00,
2013-01-22 22:08:00,4.1,0.9,30.35,WSW,253,0.0,0.0,86,0.00,,---,0.00,VWS V14.00,2013-01-23 03:08:00,
2013-01-22 22:13:00,4.1,0.9,30.35,WSW,253,0.0,1.0,86,0.00,,---,0.00,VWS V14.00,2013-01-23 03:13:00,
2013-01-22 22:18:00,4.0,0.8,30.34,WSW,253,0.0,2.0,86,0.00,,---,0.00,VWS V14.00,2013-01-23 03:18:00,
2013-01-22 22:23:00,4.0,0.8,30.34,WSW,253,0.0,2.0,86,0.00,,---,0.00,VWS V14.00,2013-01-23 03:23:00,
2013-01-22 22:28:00,3.9,0.6,30.34,WSW,253,0.0,2.0,86,0.00,,---,0.00,VWS V14.00,2013-01-23 03:28:00,
2013-01-22 22:33:00,3.8,0.6,30.34,WSW,253,0.0,0.0,86,0.00,,---,0.00,VWS V14.00,2013-01-23 03:33:00,
2013-01-22 22:38:00,3.7,0.5,30.34,WSW,253,0.0,0.0,86,0.00,,---,0.00,VWS V14.00,2013-01-23 03:38:00,
2013-01-22 22:43:00,3.6,0.4,30.35,WSW,253,0.0,0.0,86,0.00,,---,0.00,VWS V14.00,2013-01-23 03:43:00,
2013-01-22 22:48:00,3.5,0.3,30.35,WSW,253,0.0,1.0,86,0.00,,---,0.00,VWS V14.00,2013-01-23 03:48:00,
2013-01-22 22:53:00,3.4,0.2,30.35,WSW,253,0.0,1.0,86,0.00,,---,0.00,VWS V14.00,2013-01-23 03:53:00,
2013-01-22 22:58:00,3.3,0.1,30.35,WSW,253,0.0,1.0,86,0.00,,---,0.00,VWS V14.00,2013-01-23 03:58:00,
2013-01-22 23:03:00,3.2,0.0,30.35,WSW,253,0.0,0.0,86,0.00,,---,0.00,VWS V14.00,2013-01-23 04:03:00,
2013-01-22 23:08:00,3.1,-0.1,30.35,WSW,253,0.0,0.0,86,0.00,,---,0.00,VWS V14.00,2013-01-23 04:08:00,
2013-01-22 23:13:00,3.0,0.0,30.35,WSW,253,0.0,1.0,87,0.00,,---,0.00,VWS V14.00,2013-01-23 04:13:00,
2013-01-22 23:18:00,3.0,0.0,30.35,WSW,253,0.0,2.0,87,0.00,,---,0.00,VWS V14.00,2013-01-23 04:18:00,
2013-01-22 23:23:00,3.0,0.0,30.35,WSW,253,0.0,2.0,87,0.00,,---,0.00,VWS V14.00,2013-01-23 04:23:00,
2013-01-22 23:28:00,2.9,-0.1,30.35,WSW,253,0.0,2.0,87,0.00,,---,0.00,VWS V14.00,2013-01-23 04:28:00,
2013-01-22 23:33:00,2.9,-0.1,30.35,WSW,253,1.0,2.0,87,0.00,,---,0.00,VWS V14.00,2013-01-23 04:33:00,
2013-01-22 23:38:00,2.9,-0.1,30.35,WSW,253,0.0,2.0,87,0.00,,---,0.00,VWS V14.00,2013-01-23 04:38:00,
2013-01-22 23:43:00,2.8,-0.4,30.35,WSW,253,0.0,2.0,86,0.00,,---,0.00,VWS V14.00,2013-01-23 04:43:00,
2013-01-22 23:48:00,2.8,-0.4,30.35,WSW,253,2.0,2.0,86,0.00,,---,0.00,VWS V14.00,2013-01-23 04:48:00,
2013-01-22 23:53:00,2.8,-0.4,30.35,WSW,253,0.0,2.0,86,0.00,,---,0.00,VWS V14.00,2013-01-23 04:53:00,
2013-01-22 23:58:00,2.7,-0.5,30.35,WSW,253,0.0,2.0,86,0.00,,---,0.00,VWS V14.00,2013-01-23 04:58:00,